Weather History for Batman, Turkey

Change the Weather History Date:

Monday, September 9, 2013

  Actual Average (LTCC) Record (LTCC)
Temperature  
Mean Temperature 74 °F -  
Max Temperature 93 °F 90 °F 100 °F (2004)
Min Temperature 55 °F 61 °F 35 °F (1997)
Cooling Degree Days 9    
Growing Degree Days 24 (Base 50)    
Moisture  
Dew Point 35 °F    
Average Humidity 28    
Maximum Humidity 58    
Minimum Humidity 11    
Precipitation  
Precipitation 0.00 in - - ()
Sea Level Pressure  
Sea Level Pressure 29.82 in    
Wind  
Wind Speed 5 mph ()    
Max Wind Speed 16 mph    
Max Gust Speed -    
Visibility 6.2 miles    
Events      
Averages and records for this station are not official NWS values.
T = Trace of Precipitation, MM = Missing Value Source: Averaged Metar Reports

Daily Weather History Graph

Daily Weather History Graph

Search for Another Location

Airport:

Trip Planner

Search our weather history database for the weather conditions in past years. The results will help you decide how hot, cold, wet, or windy it might be!

Date:

Astronomy

Sep. 09, 2013 Rise Set
Actual Time 5:52 AM EEST 6:32 PM EEST
Civil Twilight 5:25 AM EEST 6:59 PM EEST
Nautical Twilight 4:54 AM EEST 7:30 PM EEST
Astronomical Twilight 4:21 AM EEST 8:02 PM EEST
Moon 9:45 AM EEST (9/9) 8:39 PM EEST (9/9)
Length of Visible Light 13h 33m
Length of Day
12h 40m
Waxing Crescent, 16% of the Moon is Illuminated
Sep 9
Waxing Crescent
Sep 12
First Quarter
Sep 19
Full
Sep 27
Last Quarter
Oct 5
New

Hourly Weather History & Observations

Time (EEST) Temp. Dew Point Humidity Pressure Visibility Wind Dir Wind Speed Gust Speed Precip Events Conditions
12:20 AM 64.4 °F 32.0 °F 30% 29.80 in - Calm Calm - N/A   Clear
12:50 AM 62.6 °F 32.0 °F 32% 29.80 in - NNW 2.3 mph - N/A   Clear
1:20 AM 59.0 °F 39.2 °F 48% 29.80 in - NNE 8.1 mph - N/A   Clear
1:50 AM 59.0 °F 37.4 °F 45% 29.80 in - NE 8.1 mph - N/A   Clear
2:20 AM 62.6 °F 32.0 °F 32% 29.80 in - NE 8.1 mph - N/A   Clear
2:50 AM 60.8 °F 32.0 °F 34% 29.80 in - NE 5.8 mph - N/A   Clear
3:20 AM 60.8 °F 32.0 °F 34% 29.80 in - NE 6.9 mph - N/A   Clear
3:50 AM 59.0 °F 32.0 °F 36% 29.80 in - NE 6.9 mph - N/A   Clear
4:20 AM 59.0 °F 33.8 °F 39% 29.80 in - NNE 5.8 mph - N/A   Clear
4:50 AM 55.4 °F 37.4 °F 51% 29.80 in - NNE 4.6 mph - N/A   Clear
5:20 AM 55.4 °F 41.0 °F 58% 29.80 in - North 3.5 mph - N/A   Clear
5:50 AM 55.4 °F 41.0 °F 58% 29.80 in - Calm Calm - N/A   Clear
6:20 AM 55.4 °F 41.0 °F 58% 29.83 in - Calm Calm - N/A   Clear
6:50 AM 60.8 °F 41.0 °F 48% 29.83 in - Calm Calm - N/A   Clear
7:20 AM 60.8 °F 42.8 °F 52% 29.83 in - Variable 2.3 mph - N/A   Clear
7:50 AM 64.4 °F 39.2 °F 40% 29.83 in - Variable 2.3 mph - N/A   Clear
8:20 AM 69.8 °F 37.4 °F 31% 29.86 in - Variable 2.3 mph - N/A   Clear
8:50 AM 73.4 °F 35.6 °F 25% 29.86 in - Variable 2.3 mph - N/A   Clear
9:20 AM 77.0 °F 28.4 °F 17% 29.86 in - Variable 4.6 mph - N/A   Clear
9:50 AM 78.8 °F 30.2 °F 17% 29.86 in - WSW 5.8 mph - N/A   Clear
10:20 AM 80.6 °F 33.8 °F 18% 29.86 in - WSW 5.8 mph - N/A   Clear
10:50 AM 82.4 °F 32.0 °F 16% 29.86 in - WSW 8.1 mph - N/A   Clear
11:20 AM 84.2 °F 32.0 °F 15% 29.83 in - SW 4.6 mph - N/A   Clear
11:50 AM 87.8 °F 33.8 °F 15% 29.83 in - SW 6.9 mph - N/A   Clear
12:20 PM 87.8 °F 33.8 °F 15% 29.83 in - WSW 5.8 mph - N/A   Clear
12:50 PM 91.4 °F 33.8 °F 13% 29.83 in - Variable 5.8 mph - N/A   Clear
1:20 PM 91.4 °F 30.2 °F 11% 29.80 in - Variable 3.5 mph - N/A   Clear
1:50 PM 93.2 °F 32.0 °F 11% 29.80 in - Variable 3.5 mph - N/A   Clear
2:20 PM 91.4 °F 30.2 °F 11% 29.80 in 6.2 mi WSW 8.1 mph - N/A   Partly Cloudy
2:50 PM 93.2 °F 32.0 °F 11% 29.80 in - SW 15.0 mph - N/A   Clear
3:20 PM 93.2 °F 32.0 °F 11% 29.80 in 6.2 mi SW 15.0 mph - N/A   Partly Cloudy
3:50 PM 91.4 °F 30.2 °F 11% 29.80 in 6.2 mi SSW 16.1 mph - N/A   Partly Cloudy
4:20 PM 91.4 °F 30.2 °F 11% 29.80 in 6.2 mi SSW 15.0 mph - N/A   Partly Cloudy
4:50 PM 89.6 °F 33.8 °F 14% 29.80 in 6.2 mi SSW 16.1 mph - N/A   Partly Cloudy
5:20 PM 89.6 °F 32.0 °F 13% 29.80 in 6.2 mi SW 15.0 mph - N/A   Partly Cloudy
5:50 PM 87.8 °F 35.6 °F 16% 29.80 in - SW 10.4 mph - N/A   Clear
6:20 PM 84.2 °F 35.6 °F 18% 29.80 in 6.2 mi SW 8.1 mph - N/A   Partly Cloudy
6:50 PM 80.6 °F 37.4 °F 21% 29.80 in 6.2 mi SW 6.9 mph - N/A   Partly Cloudy
7:20 PM 78.8 °F 37.4 °F 23% 29.83 in - SW 2.3 mph - N/A   Clear
7:50 PM 77.0 °F 37.4 °F 24% 29.83 in - Calm Calm - N/A   Clear
8:20 PM 77.0 °F 35.6 °F 22% 29.83 in - Calm Calm - N/A   Clear
8:50 PM 75.2 °F 35.6 °F 24% 29.86 in - Calm Calm - N/A   Clear
9:20 PM 73.4 °F 39.2 °F 29% 29.86 in - Calm Calm - N/A   Clear
9:50 PM 68.0 °F 39.2 °F 35% 29.86 in - NNE 5.8 mph - N/A   Clear
10:20 PM 68.0 °F 37.4 °F 33% 29.86 in - NNE 4.6 mph - N/A   Clear
10:50 PM 66.2 °F 42.8 °F 43% 29.86 in - NNE 5.8 mph - N/A   Clear
11:20 PM 66.2 °F 41.0 °F 40% 29.86 in - Variable 3.5 mph - N/A   Clear
11:50 PM 62.6 °F 41.0 °F 45% 29.86 in - NNE 4.6 mph - N/A   Clear